Погода в Ржанице

Россия / Брянская область     53°25′53″N   33°54′53″E
темп.,
°C
ветер,
м/с
пор.,
м/с
влажн.,
%
обл.,
%
осадки,
мм/ч
давл.,
гПа
погр.,
м
26 сентября, вс
вс2600:00+11з5119595 0.1 1006690
03:00+10сз51192100 0.1 1008736
06:00+9сз51185100 0.1 1010943
09:00+9зсз51084100 0.1 1011974
12:00+12сз6117598 0.2 10121249
15:00+11сз5107665 0.6 10141207
18:00+9сз5118388 0.4 10151005
21:00+8сз5129130 0.5 1017728
27 сентября, пн
пн2700:00+8ссз4108914 0.0 1018645
03:00+6ссз4119460 0.0 1020528
06:00+7ссз31089100 0.0 1021500
09:00+10с488561 0.0 1022606
12:00+10ссв378288 0.1 1023546
15:00+12ссв4768100 0.5 10231131
18:00+10ссв3875100 0.1 1023566
21:00+7с289518 0.1 1024179
28 сентября, вт
вт2800:00+8с2791100 0.0 1025284
03:00+8с279383 0.0 1025337
06:00+7ссв389396 0.0 1025447
09:00+8св3889100 0.0 1027676
12:00+8св3780100 0.2 1028783
15:00+8св4671100 0.2 1029868
18:00+7всв3676100 0.0 1031661
21:00+7св2783100 0.1 1032456
29 сентября, ср
ср2900:00+6всв3882100 0.1 1033518
03:00+6всв257690 0.1 1034186
06:00+3св25875 0.0 103592
09:00+6св24705 0.0 1036276
12:00+10св23555 0.0 10351098
15:00+12св234849 0.0 10341274
18:00+8св22678 0.0 103424
21:00+5всв2274100 0.0 103526
30 сентября, чт
чт3000:00+4всв1179100 0.0 103512
03:00+4всв1182100 0.0 103610
06:00+3всв11845 0.0 103610
09:00+6в126977 0.0 1036198
12:00+11вюв2353100 0.0 1035767
15:00+12юв125025 0.0 10351014
18:00+9вюв00684 0.0 103410
21:00+6в117616 0.0 103510